{"data":{"norad_id":68950,"intl_designator":"2026-098AH","name":"KUIPER-00458","alt_names":[],"object_type":"PAYLOAD","status":"ACTIVE","operator":null,"country":"US","launch_date":"2026-04-30","launch_site_code":"FRGUI","launch_vehicle":null,"mission":null,"orbit_class":"UNKNOWN","rcs_meters":null,"size_class":null,"mass_kg":null,"dimensions":null,"purposes":[],"wikipedia_slug":null,"has_3d_model":false,"image_url":null,"decayed_at":null,"tle_current":{"epoch":"2026-09-19T18:34:03.047232Z","epoch_age_seconds":81770,"freshness":"FRESH","line1":"1 68950U 26098AH  26262.77364638  .00001154  00000+0  18037-3 0  9997","line2":"2 68950  51.9007 349.9225 0000642  94.7306 265.3730 14.79930110 21629","mean_motion":14.7993011,"eccentricity":6.42e-5,"inclination_deg":51.9007,"raan_deg":349.9225,"arg_perigee_deg":94.7306,"mean_anomaly_deg":265.373,"bstar":0.00018037,"rev_number":2162,"period_min":97.301892181922,"perigee_km":629.09485903521,"apogee_km":629.99464537219,"semimajor_km":7007.6817522037,"source":"CELESTRAK","updated_at":"2026-09-20T09:00:24.586161Z"}}}